When you browse on this site, cookies collect data to enhance your experience and personalize the content and advertising you see.
Visit our Privacy Policy to learn more. By continuing to use the site, you agree to this use of cookies and data.
  • en France
  • Liste des pays
  • À 7 jours
  • Température de l'eau
  • Carte satellitaire
  • Carte météo
  • Widgets météo
  • user-avatar
    Se connecter

    Météo par heure à Orange Walk

    Ce jour, 26 Avril, Vendredi

    Heure Température Précipitation Vent Pression Humidité
    00:00 +26°C° 0 mm 1 m/s 757 mmHg 92%
    01:00 +26°C° 0 mm 1 m/s 757 mmHg 93%
    02:00 +26°C° 0 mm 1 m/s 757 mmHg 94%
    03:00 +26°C° 0 mm 1 m/s 757 mmHg 95%
    04:00 +26°C° 0 mm 1 m/s 757 mmHg 95%
    05:00 +24°C° 0 mm 0 m/s 757 mmHg 95%
    06:00 +24°C° 0 mm 0 m/s 757 mmHg 95%
    07:00 +28°C° 0 mm 1 m/s 758 mmHg 84%
    08:00 +30°C° 0 mm 1 m/s 758 mmHg 74%
    09:00 +33°C° 0 mm 1 m/s 759 mmHg 63%
    10:00 +34°C° 0.1 mm 1 m/s 758 mmHg 59%
    11:00 +35°C° 0.1 mm 1 m/s 758 mmHg 54%
    12:00 +36°C° 0.1 mm 1 m/s 758 mmHg 49%
    13:00 +37°C° 0 mm 2 m/s 757 mmHg 48%
    14:00 +37°C° 0 mm 2 m/s 757 mmHg 47%
    15:00 +37°C° 0 mm 2 m/s 756 mmHg 45%
    16:00 +35°C° 0 mm 2 m/s 756 mmHg 52%
    17:00 +34°C° 0 mm 2 m/s 756 mmHg 59%
    18:00 +31°C° 0 mm 2 m/s 756 mmHg 65%
    19:00 +30°C° 0 mm 2 m/s 757 mmHg 72%
    20:00 +29°C° 0 mm 1 m/s 757 mmHg 79%
    21:00 +27°C° 0 mm 1 m/s 758 mmHg 85%
    22:00 +27°C° 0 mm 1 m/s 758 mmHg 87%
    23:00 +26°C° 0 mm 1 m/s 758 mmHg 89%

    Demain, 27 Avril, Samedi

    Heure Température Précipitation Vent Pression Humidité
    00:00 +26°C° 0 mm 1 m/s 758 mmHg 91%
    01:00 +24°C° 0.1 mm 0 m/s 758 mmHg 92%
    02:00 +24°C° 0.1 mm 0 m/s 757 mmHg 92%
    03:00 +24°C° 0.1 mm 0 m/s 757 mmHg 92%
    04:00 +24°C° 0.2 mm 0 m/s 757 mmHg 93%
    05:00 +24°C° 0.2 mm 0 m/s 757 mmHg 93%
    06:00 +26°C° 0.2 mm 1 m/s 758 mmHg 94%
    07:00 +28°C° 0.3 mm 1 m/s 758 mmHg 86%
    08:00 +29°C° 0.3 mm 1 m/s 758 mmHg 78%
    09:00 +31°C° 0.3 mm 2 m/s 759 mmHg 71%
    10:00 +31°C° 0.1 mm 2 m/s 758 mmHg 69%
    11:00 +31°C° 0.1 mm 2 m/s 758 mmHg 67%
    12:00 +31°C° 0.1 mm 3 m/s 758 mmHg 66%
    13:00 +34°C° 0 mm 3 m/s 757 mmHg 60%
    14:00 +35°C° 0 mm 3 m/s 756 mmHg 53%
    15:00 +36°C° 0 mm 3 m/s 756 mmHg 47%
    16:00 +34°C° 0 mm 3 m/s 756 mmHg 54%
    17:00 +31°C° 0 mm 3 m/s 756 mmHg 61%
    18:00 +30°C° 0 mm 2 m/s 756 mmHg 68%
    19:00 +28°C° 0 mm 2 m/s 756 mmHg 74%
    20:00 +27°C° 0 mm 1 m/s 757 mmHg 81%
    21:00 +26°C° 0 mm 1 m/s 757 mmHg 88%
    22:00 +26°C° 0 mm 1 m/s 757 mmHg 90%
    23:00 +26°C° 0 mm 1 m/s 757 mmHg 92%

    Après-demain, 28 Avril, Dimanche

    Heure Température Précipitation Vent Pression Humidité
    00:00 +25°C° 0 mm 1 m/s 757 mmHg 94%
    01:00 +25°C° 0 mm 1 m/s 757 mmHg 94%
    02:00 +25°C° 0 mm 1 m/s 756 mmHg 94%
    03:00 +25°C° 0 mm 1 m/s 756 mmHg 95%
    04:00 +25°C° 0 mm 1 m/s 756 mmHg 94%
    05:00 +26°C° 0 mm 1 m/s 756 mmHg 92%
    06:00 +26°C° 0 mm 1 m/s 757 mmHg 91%
    07:00 +28°C° 0 mm 1 m/s 757 mmHg 80%
    08:00 +30°C° 0 mm 2 m/s 758 mmHg 69%
    09:00 +32°C° 0 mm 2 m/s 758 mmHg 58%
    10:00 +34°C° 0 mm 3 m/s 758 mmHg 54%
    11:00 +35°C° 0 mm 3 m/s 758 mmHg 50%
    12:00 +36°C° 0 mm 3 m/s 757 mmHg 46%
    13:00 +36°C° 0 mm 3 m/s 757 mmHg 47%
    14:00 +36°C° 0 mm 4 m/s 756 mmHg 49%
    15:00 +36°C° 0 mm 4 m/s 755 mmHg 50%
    16:00 +34°C° 0 mm 3 m/s 755 mmHg 58%
    17:00 +31°C° 0 mm 3 m/s 755 mmHg 65%
    18:00 +30°C° 0 mm 2 m/s 755 mmHg 73%
    19:00 +29°C° 0 mm 2 m/s 756 mmHg 79%
    20:00 +28°C° 0 mm 2 m/s 757 mmHg 84%
    21:00 +27°C° 0 mm 1 m/s 758 mmHg 90%
    22:00 +27°C° 0 mm 1 m/s 758 mmHg 91%
    23:00 +27°C° 0 mm 1 m/s 758 mmHg 92%

    29 Avril, Lundi

    Heure Température Précipitation Vent Pression Humidité
    00:00 +26°C° 0 mm 1 m/s 757 mmHg 94%
    01:00 +26°C° 0 mm 1 m/s 757 mmHg 94%
    02:00 +26°C° 0 mm 1 m/s 757 mmHg 95%
    03:00 +26°C° 0 mm 1 m/s 756 mmHg 95%
    04:00 +26°C° 0 mm 1 m/s 756 mmHg 94%
    05:00 +26°C° 0 mm 1 m/s 757 mmHg 94%
    06:00 +26°C° 0 mm 1 m/s 757 mmHg 93%
    07:00 +28°C° 0 mm 2 m/s 757 mmHg 82%
    08:00 +31°C° 0 mm 3 m/s 758 mmHg 72%
    09:00 +34°C° 0 mm 3 m/s 758 mmHg 61%
    10:00 +35°C° 0.1 mm 4 m/s 758 mmHg 57%
    11:00 +36°C° 0.1 mm 4 m/s 758 mmHg 54%
    12:00 +37°C° 0.1 mm 4 m/s 758 mmHg 50%
    13:00 +36°C° 0 mm 4 m/s 757 mmHg 51%
    14:00 +36°C° 0 mm 4 m/s 756 mmHg 52%
    15:00 +35°C° 0 mm 4 m/s 756 mmHg 53%
    16:00 +34°C° 0 mm 4 m/s 756 mmHg 60%
    17:00 +31°C° 0 mm 3 m/s 756 mmHg 66%
    18:00 +30°C° 0 mm 3 m/s 757 mmHg 73%
    19:00 +29°C° 0 mm 3 m/s 757 mmHg 76%
    20:00 +28°C° 0 mm 2 m/s 758 mmHg 80%
    21:00 +28°C° 0 mm 2 m/s 758 mmHg 83%
    22:00 +27°C° 0 mm 2 m/s 758 mmHg 85%
    23:00 +27°C° 0 mm 2 m/s 758 mmHg 86%

    30 Avril, Mardi

    Heure Température Précipitation Vent Pression Humidité
    00:00 +27°C° 0 mm 1 m/s 758 mmHg 87%
    01:00 +27°C° 0 mm 1 m/s 758 mmHg 88%
    02:00 +27°C° 0 mm 1 m/s 757 mmHg 88%
    03:00 +26°C° 0 mm 1 m/s 757 mmHg 89%
    04:00 +27°C° 0 mm 1 m/s 757 mmHg 89%
    05:00 +27°C° 0 mm 1 m/s 758 mmHg 90%
    06:00 +27°C° 0 mm 1 m/s 758 mmHg 90%
    07:00 +28°C° 0.4 mm 2 m/s 758 mmHg 85%
    08:00 +29°C° 0.4 mm 3 m/s 759 mmHg 79%
    09:00 +32°C° 0.4 mm 4 m/s 759 mmHg 73%
    10:00 +33°C° 0.4 mm 4 m/s 759 mmHg 68%
    11:00 +34°C° 0.4 mm 4 m/s 759 mmHg 63%
    12:00 +35°C° 0.4 mm 4 m/s 758 mmHg 59%
    13:00 +35°C° 0.1 mm 4 m/s 758 mmHg 57%
    14:00 +35°C° 0.1 mm 4 m/s 757 mmHg 56%
    15:00 +35°C° 0.1 mm 4 m/s 757 mmHg 54%
    16:00 +34°C° 0 mm 4 m/s 757 mmHg 60%
    17:00 +31°C° 0 mm 3 m/s 757 mmHg 67%
    18:00 +30°C° 0 mm 3 m/s 758 mmHg 73%
    19:00 +29°C° 0 mm 3 m/s 758 mmHg 77%
    20:00 +28°C° 0 mm 2 m/s 759 mmHg 81%
    21:00 +27°C° 0 mm 2 m/s 759 mmHg 85%
    22:00 +27°C° 0 mm 2 m/s 759 mmHg 85%
    23:00 +27°C° 0 mm 2 m/s 758 mmHg 86%

    1 Mai, Mercredi

    Heure Température Précipitation Vent Pression Humidité
    00:00 +27°C° 0 mm 2 m/s 758 mmHg 86%
    01:00 +27°C° 0 mm 2 m/s 758 mmHg 87%
    02:00 +27°C° 0 mm 2 m/s 757 mmHg 88%
    03:00 +27°C° 0 mm 2 m/s 757 mmHg 89%
    04:00 +27°C° 0 mm 2 m/s 757 mmHg 88%
    05:00 +27°C° 0 mm 2 m/s 758 mmHg 88%
    06:00 +27°C° 0 mm 2 m/s 758 mmHg 88%
    07:00 +29°C° 0.1 mm 2 m/s 759 mmHg 80%
    08:00 +30°C° 0.1 mm 3 m/s 759 mmHg 71%
    09:00 +33°C° 0.1 mm 4 m/s 759 mmHg 63%
    10:00 +34°C° 0.2 mm 4 m/s 759 mmHg 60%
    11:00 +35°C° 0.2 mm 4 m/s 759 mmHg 56%
    12:00 +36°C° 0.2 mm 4 m/s 758 mmHg 53%
    13:00 +36°C° 0.1 mm 4 m/s 758 mmHg 53%
    14:00 +35°C° 0.1 mm 4 m/s 757 mmHg 53%
    15:00 +35°C° 0.1 mm 4 m/s 757 mmHg 53%
    16:00 +34°C° 0 mm 4 m/s 757 mmHg 59%
    17:00 +32°C° 0 mm 4 m/s 757 mmHg 66%
    18:00 +30°C° 0 mm 3 m/s 758 mmHg 72%
    19:00 +29°C° 0 mm 3 m/s 758 mmHg 76%
    20:00 +28°C° 0 mm 2 m/s 759 mmHg 80%
    21:00 +27°C° 0 mm 2 m/s 759 mmHg 84%
    22:00 +27°C° 0 mm 2 m/s 759 mmHg 86%
    23:00 +27°C° 0 mm 2 m/s 758 mmHg 87%
    Voir plus